Simultaneous Nadir Overpasses (SNOs) Predictions

Prediction of SNOs between GOES-17 and METOP-C Satellite Orbit:

Table of predicted SNOs for the next 14.0 days since TLE Epoch: 5/13/2023
Index Date Time (GOES-17) GOES-17 Lat,Lon METOP-C Lat,Lon Distance(km) Time Diff (sec)
1 05/14/2023 04:42:01 0.01,-104.70 -0.60,-107.51 319.28 80
2 05/15/2023 04:18:41 0.01,-104.70 0.49,-102.50 250.28 80
3 05/16/2023 16:37:31 -0.01,-104.75 0.52,-107.06 263.79 80
4 05/17/2023 16:19:32 -0.01,-104.76 -0.63,-102.08 306.11 80
5 05/19/2023 04:38:31 0.00,-104.72 -0.43,-106.66 221.45 80
6 05/20/2023 04:15:10 0.00,-104.72 0.67,-101.66 348.18 80
7 05/21/2023 16:34:01 0.00,-104.77 0.32,-106.23 165.97 80
8 05/22/2023 16:16:00 0.01,-104.77 -0.79,-101.23 403.90 80
9 05/24/2023 04:35:00 -0.01,-104.74 -0.27,-105.82 123.57 80
10 05/25/2023 04:11:40 -0.00,-104.74 0.89,-100.83 445.94 80
11 05/26/2023 16:30:29 -0.01,-104.79 0.12,-105.38 68.33 80
